FW6327 Weather Reports


Display with metric or nautical units.
time (UTC)temp
F
wind
direction
speed
MPH
gust
MPH
rain 1hr
in
rain 24hr
in
rain mn
in
humidity
%
barometer
mb
20260905040051 57 80 11.0 20.0 0.18 1.03 0.18 89 1003.9
20260905034551 58 55 12.0 25.0 0.21 1.02 0.17 89 1003.3
20260905033044 58 44 12.0 23.0 0.20 0.98 0.13 89 1003.5
20260905031538 59 65 13.0 24.0 0.18 0.91 0.06 89 1003.6
20260905030038 60 89 16.0 27.0 0.17 0.85 0.00 89 1003.4
20260905023027 59 5 10.0 19.0 0.15 0.77 0.77 89 1003.1
20260905021524 60 59 17.0 30.0 0.13 0.73 0.73 89 1002.7
20260905020033 60 10 13.0 26.0 0.08 0.68 0.68 89 1003.4
20260905014517 60 29 11.0 19.0 0.05 0.65 0.65 89 1003.8
20260905013013 60 19 9.0 19.0 0.04 0.62 0.62 89 1004.2
20260905011508 60 346 4.0 10.0 0.03 0.61 0.61 90 1004.7
20260905010009 59 65 4.0 11.0 0.04 0.60 0.60 90 1004.7
20260905004504 60 37 8.0 24.0 0.04 0.60 0.60 89 1004.7
20260905003002 60 25 13.0 27.0 0.03 0.57 0.57 89 1004.8
20260905001558 60 49 13.0 24.0 0.04 0.56 0.56 89 1005.3
20260905000054 60 5 8.0 21.0 0.05 0.56 0.56 89 1005.4
20260904234550 60 5 6.0 18.0 0.07 0.55 0.55 89 1006.0
20260904233052 60 75 12.0 20.0 0.07 0.55 0.55 89 1005.8
20260904231543 60 19 9.0 20.0 0.07 0.54 0.54 89 1006.2
20260904230041 60 24 6.0 16.0 0.06 0.51 0.51 89 1006.1
20260904224538 60 340 7.0 16.0 0.03 0.48 0.48 89 1006.1
20260904223035 60 36 6.0 23.0 0.04 0.48 0.48 89 1006.3
20260904221532 61 28 11.0 21.0 0.05 0.46 0.46 90 1006.1
20260904220028 61 25 8.0 15.0 0.06 0.46 0.46 90 1006.9
20260904214526 61 332 6.0 13.0 0.07 0.45 0.45 90 1007.0
20260904213028 61 322 6.0 14.0 0.09 0.44 0.44 91 1007.0
20260904211519 61 335 3.0 12.0 0.12 0.42 0.42 91 1007.4
20260904210025 61 38 2.0 13.0 0.13 0.39 0.39 91 1007.9
20260904204511 60 355 4.0 9.0 0.12 0.37 0.37 91 1008.2
20260904203010 60 19 3.0 6.0 0.12 0.35 0.35 91 1008.2
20260904201506 60 5 1.0 6.0 0.09 0.30 0.30 91 1008.9
20260904200003 60 351 1.0 13.0 0.07 0.27 0.27 90 1008.6
20260904194501 60 300 2.0 9.0 0.09 0.25 0.25 90 1008.7
20260904193058 60 94 5.0 10.0 0.12 0.23 0.23 90 1008.8
20260904191554 61 355 2.0 5.0 0.12 0.21 0.21 90 1009.2
20260904190052 61 9 2.0 6.0 0.12 0.20 0.20 90 1009.2
20260904184550 61 5 4.0 9.0 0.09 0.17 0.17 89 1009.3
20260904183148 62 9 1.0 4.0 0.03 0.11 0.11 88 1009.4
20260904181549 62 27 2.0 8.0 0.02 0.09 0.09 87 1009.2
20260904180041 63 300 2.0 7.0 0.00 0.08 0.08 87 1009.3
20260904174542 63 12 2.0 10.0 0.00 0.08 0.08 87 1009.5
20260904173036 64 46 2.0 5.0 0.00 0.08 0.08 87 1009.8
20260904171541 63 261 0.0 7.0 0.00 0.08 0.08 87 1010.2
20260904170031 63 53 1.0 6.0 0.00 0.08 0.08 87 1010.2
20260904164526 63 274 1.0 3.0 0.00 0.08 0.08 88 1010.5
20260904163029 63 260 3.0 7.0 0.00 0.08 0.08 89 1010.5
20260904161527 63 213 1.0 4.0 0.00 0.08 0.08 89 1010.6
20260904160017 62 172 2.0 5.0 0.00 0.08 0.08 89 1010.7
20260904154513 62 228 2.0 9.0 0.01 0.08 0.08 89 1010.7
20260904153017 62 106 2.0 10.0 0.01 0.08 0.08 89 1010.7
20260904151511 61 5 5.0 10.0 0.02 0.08 0.08 90 1010.8
20260904150016 61 26 2.0 7.0 0.02 0.08 0.08 89 1011.0
20260904144502 61 16 2.0 8.0 0.02 0.07 0.07 89 1011.3
20260904143059 62 16 2.0 5.0 0.02 0.07 0.07 89 1011.6
20260904141557 61 71 4.0 9.0 0.02 0.06 0.06 89 1011.9
20260904140053 62 237 1.0 4.0 0.02 0.06 0.06 90 1012.2
20260904134549 61 289 0.0 3.0 0.02 0.06 0.06 90 1012.3
20260904133046 61 253 1.0 5.0 0.02 0.06 0.06 90 1012.6
20260904131556 60 289 3.0 5.0 0.02 0.05 0.05 90 1012.8
20260904130040 60 13 1.0 3.0 0.02 0.04 0.04 90 1013.0
20260904124538 61 45 0.0 2.0 0.03 0.04 0.04 90 1013.1
20260904123035 61 46 1.0 3.0 0.02 0.03 0.03 90 1013.2
20260904121534 61 50 0.0 6.0 0.02 0.02 0.02 89 1013.3
20260904120037 61 13 1.0 4.0 0.02 0.02 0.02 90 1013.3
20260904114529 61 355 2.0 4.0 0.01 0.01 0.01 90 1013.4
20260904113027 61 360 1.0 4.0 0.01 0.01 0.01 89 1013.4
20260904111528 61 290 2.0 7.0 0.00 0.00 0.00 89 1013.3
20260904110024 61 279 1.0 3.0 0.00 0.00 0.00 88 1013.4
20260904104521 61 142 1.0 3.0 0.00 0.00 0.00 88 1013.4
20260904103020 60 351 1.0 3.0 0.00 0.00 0.00 88 1013.4
20260904101516 60 40 3.0 4.0 0.00 0.00 0.00 88 1013.6
20260904100014 60 40 1.0 3.0 0.00 0.00 0.00 88 1013.9
20260904094511 60 38 1.0 5.0 0.00 0.00 0.00 88 1013.9
20260904093013 59 253 3.0 6.0 0.00 0.00 0.00 90 1013.9
20260904091507 59 200 1.0 2.0 0.00 0.00 0.00 90 1013.9
20260904090005 59 201 0.0 3.0 0.00 0.00 0.00 90 1014.1
20260904084503 58 266 1.0 3.0 0.00 0.00 0.00 91 1014.2
20260904083111 58 265 0.0 0.0 0.00 0.00 0.00 90 1014.3
20260904081555 58 265 0.0 0.0 0.00 0.00 0.00 90 1014.5
20260904080053 58 265 0.0 0.0 0.00 0.00 0.00 90 1014.7
20260904074603 58 265 0.0 0.0 0.00 0.00 0.00 89 1014.8
20260904073050 58 265 0.0 0.0 0.00 0.00 0.00 89 1015.0
20260904071544 59 264 0.0 0.0 0.00 0.00 0.00 89 1015.1
20260904070040 59 264 1.0 3.0 0.00 0.00 0.00 89 1015.3
20260904064538 59 263 0.0 2.0 0.00 0.00 0.00 88 1015.6
20260904063034 60 263 1.0 2.0 0.00 0.00 0.00 87 1015.7
20260904061537 60 263 1.0 6.0 0.00 0.00 0.00 87 1015.9
20260904060029 60 234 0.0 2.0 0.00 0.00 0.00 87 1015.9
20260904054528 61 233 0.0 5.0 0.00 0.00 0.00 86 1016.0
20260904053022 60 248 3.0 5.0 0.00 0.00 0.00 87 1016.3
20260904051520 61 207 1.0 9.0 0.00 0.00 0.00 87 1016.5
20260904050016 61 207 2.0 7.0 0.00 0.00 0.00 87 1016.6
20260904044513 61 219 4.0 8.0 0.00 0.00 0.00 87 1016.7
20260904043015 60 221 4.0 8.0 0.00 0.00 0.00 89 1016.8
20260904041507 60 233 0.0 2.0 0.00 0.00 0.00 89 1016.7